Theta_e
308 310 310 310 311 310 310 310 307 306 305 304 304 304 305 304 304 304 303 303 303 302 301 293 291 291 291 291 290 289 289 288 288 288 288 287 288 292
307 307 308 309 310 311 311 311 310 309 307 306 305 304 304 304 304 304 304 303 302 301 297 291 291 290 290 289 289 289 288 288 288 288 287 287 289 291
308 307 306 307 308 309 310 311 311 310 307 307 305 304 304 304 304 304 303 302 301 300 292 290 290 290 289 288 288 288 288 288 287 287 287 287 287 290
309 307 306 306 306 306 308 309 309 310 308 306 304 304 303 304 304 303 302 301 300 294 290 289 289 288 288 288 288 288 288 288 287 287 286 287 288 290
310 308 307 306 309 307 306 306 305 306 306 305 304 304 303 304 303 301 301 300 296 290 289 289 288 288 288 288 288 288 288 287 287 286 286 287 287 287
310 309 309 309 307 306 306 305 304 304 304 304 304 304 304 303 302 300 299 297 291 290 289 288 288 288 288 288 288 287 287 287 286 286 286 286 286 286
312 311 311 307 306 306 306 305 304 304 304 304 304 304 303 303 301 299 296 291 289 289 288 288 288 288 288 287 287 287 286 286 285 285 285 285 285 285
314 312 307 306 306 306 305 305 304 304 304 304 303 302 300 298 299 297 291 290 289 289 288 288 288 287 287 287 286 286 286 285 285 285 285 284 284 285
312 308 307 307 307 305 305 303 301 299 300 301 301 301 302 300 295 292 291 289 288 288 288 288 288 287 286 286 286 286 285 284 284 284 284 284 284 284
310 309 308 308 306 306 304 301 299 301 302 303 302 296 292 292 293 293 291 288 287 287 287 287 287 287 286 286 286 285 284 284 284 284 284 284 283 283
309 308 308 307 307 304 302 302 302 302 302 297 292 293 296 295 292 291 288 287 286 286 286 286 285 285 286 286 285 285 285 285 284 284 284 283 283 283
308 307 306 306 305 303 301 302 302 301 300 295 294 294 291 291 288 287 287 287 286 285 286 285 284 283 284 285 285 285 285 284 284 283 283 283 283 283
307 306 305 304 302 302 302 301 301 300 296 294 294 292 288 287 287 287 286 286 285 284 284 283 283 283 283 283 284 284 283 283 283 282 282 282 283 282
307 306 304 302 301 300 300 299 297 296 294 293 290 287 287 287 286 286 285 285 284 284 283 283 283 283 282 282 283 282 282 282 281 281 281 282 283 282
303 305 303 301 300 299 298 296 292 290 292 289 287 287 286 286 285 285 285 284 284 283 283 283 282 282 282 282 281 282 281 282 281 281 281 282 282 282
301 300 300 299 298 297 294 290 289 292 289 287 287 286 285 285 285 284 284 283 283 282 282 282 282 282 282 281 280 281 281 280 281 281 280 281 282 282
299 297 296 296 295 293 290 288 291 288 287 287 286 285 285 284 284 283 283 283 283 282 281 281 281 281 280 280 281 281 280 280 281 281 281 281 282 282
297 296 295 294 294 292 289 290 288 287 287 286 285 284 284 283 283 283 283 282 282 282 281 281 280 280 280 281 281 280 280 280 280 281 281 281 282 282
296 295 295 293 292 290 290 289 287 287 286 285 284 283 283 282 282 282 282 281 281 281 280 279 279 279 279 280 282 281 280 281 281 281 281 281 281 282
294 294 293 292 291 290 288 288 286 285 284 284 283 282 282 282 282 281 281 281 281 280 279 279 278 278 279 278 279 281 281 281 280 281 281 281 281 282
293 293 292 291 290 288 287 286 285 284 284 283 282 282 282 281 281 280 280 280 280 279 279 278 278 278 279 279 280 280 281 281 281 281 281 281 281 282
291 291 290 289 288 287 286 285 284 283 283 282 282 281 281 281 280 280 280 280 279 279 279 279 279 279 279 280 280 280 281 281 282 282 281 281 280 281
289 289 289 288 287 286 285 285 284 283 282 282 281 281 280 280 280 280 280 279 279 278 278 279 279 279 280 279 280 280 281 281 281 281 282 282 282 283
Wind_Speed
34 33 30 29 28 27 24 20 17 12 18 22 24 29 28 25 23 20 18 16 16 15 16 16 16 15 16 17 16 15 17 17 18 19 20 21 21 20
34 33 32 32 29 29 27 25 25 20 13 20 23 27 28 27 25 23 21 17 15 16 17 17 16 16 16 14 15 17 17 19 20 22 22 23 22 21
34 34 31 31 32 30 29 31 29 25 23 23 22 25 25 25 26 24 21 18 17 17 17 18 17 15 15 16 17 18 20 21 23 24 24 25 24 22
35 34 32 32 31 30 32 32 30 29 30 27 24 22 24 23 23 24 20 19 18 17 17 17 14 14 17 17 19 20 21 23 24 26 26 25 23 20
38 36 37 34 32 30 29 32 30 29 29 27 22 21 23 22 23 24 21 20 19 17 16 14 14 15 17 18 20 21 23 24 25 25 24 23 24 23
46 41 38 32 29 30 30 28 26 26 25 24 21 18 20 20 23 23 21 20 18 16 15 14 15 16 18 19 21 22 23 24 24 23 21 24 25 24
40 39 33 30 29 29 26 28 26 24 23 23 21 19 20 25 25 21 19 17 15 15 16 13 15 18 18 19 21 23 23 22 21 21 24 26 26 25
33 33 31 31 29 27 25 23 24 25 25 22 21 21 22 21 21 17 18 15 12 15 14 14 15 16 17 19 22 23 21 18 21 24 24 26 27 25
30 33 33 33 31 28 26 23 24 23 18 19 20 22 23 21 16 18 15 16 16 15 14 14 14 14 17 19 21 20 15 21 21 23 24 25 26 26
27 32 34 32 31 29 27 30 29 25 24 24 22 16 16 15 15 15 16 17 14 13 12 13 15 15 16 18 19 13 21 19 20 22 24 25 27 28
27 33 33 31 29 29 31 30 29 27 26 19 17 17 17 15 14 16 15 12 11 12 11 12 14 19 17 16 10 20 18 18 21 21 22 24 26 30
29 32 33 31 29 30 30 30 28 26 25 24 22 17 15 16 16 15 12 10 9 9 11 12 15 17 14 4 20 19 18 21 23 23 22 24 26 29
28 31 33 33 32 31 31 27 24 23 20 19 17 14 15 14 12 10 9 8 8 8 13 13 14 16 16 20 23 21 23 25 27 25 25 28 29 29
23 30 34 34 34 31 28 24 19 20 20 17 16 16 14 12 10 8 7 7 8 9 12 13 14 15 18 22 25 22 25 25 23 23 26 30 30 31
21 29 34 34 32 30 25 23 23 21 16 18 17 15 14 11 9 8 7 7 8 10 11 12 13 15 18 22 26 28 28 26 22 27 30 30 32 33
22 32 35 33 31 27 26 25 24 18 17 18 17 15 12 10 8 7 6 6 7 9 10 11 13 16 19 22 24 26 22 20 29 30 32 34 34 32
26 34 37 34 30 29 29 27 23 20 20 18 16 13 12 10 8 7 6 6 7 9 10 12 14 18 20 20 20 18 22 26 28 33 35 38 35 34
29 41 39 36 35 35 30 27 25 23 21 17 15 13 11 9 8 6 5 6 7 9 11 14 17 20 20 21 20 21 25 29 31 32 32 35 39 34
36 43 40 36 35 33 31 27 23 20 18 16 14 13 11 9 7 5 5 5 7 10 12 14 16 18 20 20 22 21 28 29 31 33 32 32 36 34
42 41 37 35 32 30 28 23 21 20 18 16 14 12 9 7 6 5 4 5 8 10 13 14 14 15 17 19 26 24 21 28 29 32 33 33 32 32
38 35 31 28 27 27 24 21 19 18 16 15 13 10 9 7 6 4 3 5 9 12 14 14 14 14 17 21 22 27 24 19 21 27 29 32 36 40
30 28 25 24 25 24 23 21 18 16 15 14 12 10 8 7 5 3 3 7 10 13 15 13 13 14 16 18 23 26 27 23 19 20 23 22 28 33
26 23 24 24 23 23 21 20 17 16 15 13 11 10 9 7 4 3 5 9 13 15 14 13 13 13 16 18 22 24 24 27 30 31 24 22 26 28
Wind_Direction
232 233 234 237 238 242 245 249 243 221 229 232 231 231 231 231 235 239 247 256 267 282 299 306 310 310 312 311 308 320 321 321 320 319 318 314 313 316
233 233 233 236 239 242 244 246 244 245 236 243 242 239 233 232 236 240 247 257 270 286 295 301 305 307 307 310 317 318 317 316 316 314 313 313 313 312
233 233 234 235 237 239 243 245 246 240 235 239 243 239 231 233 237 242 248 255 267 278 287 294 299 305 314 313 315 314 316 315 313 312 315 314 310 312
234 232 232 232 231 240 242 244 244 243 239 240 237 232 229 230 236 239 245 253 263 273 281 283 299 310 308 312 310 311 312 314 313 314 312 312 309 312
237 234 229 225 242 235 239 243 238 237 236 236 231 227 225 230 232 235 242 251 262 274 278 299 301 299 303 306 308 310 313 315 312 312 308 309 309 311
230 230 236 236 232 231 232 232 230 229 226 225 224 222 227 230 233 237 242 251 262 276 289 289 291 296 303 309 308 310 313 312 309 310 313 309 309 310
236 236 233 227 229 236 237 232 225 220 218 218 218 220 226 232 228 233 240 257 267 272 277 283 289 301 303 306 309 313 313 312 312 314 310 308 310 310
235 231 222 222 226 236 225 233 239 225 212 211 213 219 223 222 228 242 242 252 257 264 266 277 289 300 306 310 312 313 312 312 314 311 311 310 310 308
229 223 219 222 227 224 232 212 197 194 202 210 216 225 234 235 232 233 242 250 250 261 275 286 295 303 309 312 311 311 311 320 315 311 311 310 308 308
231 228 223 229 223 225 221 201 200 207 218 228 225 225 219 220 225 235 243 246 257 268 279 292 299 306 314 314 311 309 318 316 313 313 311 311 309 311
233 231 231 227 226 217 209 210 212 216 226 213 207 205 217 227 233 239 232 239 256 275 287 295 306 315 322 318 305 320 317 313 315 317 317 316 314 314
230 227 223 225 222 210 212 218 224 226 216 209 210 210 206 223 225 224 230 242 259 277 287 303 314 323 326 309 321 322 324 322 323 326 322 319 319 319
226 220 217 211 212 210 213 225 227 221 202 199 203 200 208 211 216 224 234 249 265 275 288 307 316 319 317 314 326 330 332 326 321 324 327 326 323 322
236 223 212 207 209 211 214 213 203 196 198 200 196 201 204 209 217 230 242 258 275 286 296 309 315 317 317 317 318 319 324 319 317 317 323 326 326 326
239 225 208 208 208 210 208 196 189 192 197 196 202 205 205 210 219 230 251 273 289 298 306 312 315 319 316 312 311 323 324 325 322 324 324 329 329 328
233 214 205 204 206 200 189 187 187 198 196 206 205 205 205 209 217 234 257 281 293 299 307 313 318 316 315 315 310 319 325 313 325 330 327 326 328 328
218 202 192 195 190 185 188 184 193 191 200 204 205 205 205 208 218 234 256 276 290 304 314 319 317 316 316 317 317 327 325 327 333 330 329 325 327 331
213 193 191 192 190 190 188 189 189 195 201 203 201 203 205 210 223 239 263 282 297 305 314 320 321 321 324 329 332 333 334 332 331 329 328 326 325 335
207 194 194 193 190 189 191 189 187 193 198 198 200 202 205 212 225 245 264 286 303 315 322 324 323 324 326 324 328 343 331 331 329 329 331 330 326 337
196 193 193 193 190 187 186 185 188 191 191 196 198 200 206 214 224 237 257 296 316 324 325 327 324 322 325 322 320 336 340 334 332 330 334 330 331 334
195 195 192 187 186 185 182 179 189 193 194 195 197 200 206 211 212 215 273 322 330 326 325 328 324 322 322 321 323 331 341 342 337 332 333 329 332 331
194 187 186 189 186 183 178 181 184 193 193 196 197 199 200 196 200 227 287 318 324 325 323 328 328 325 326 328 331 335 339 344 344 339 337 334 331 322
189 196 191 187 186 182 180 182 187 194 195 194 193 193 191 193 208 255 294 322 326 326 325 328 331 332 334 334 335 338 342 341 342 343 346 344 341 336